Regional Weather Roundup
Issued by NWS

Home | Current Version | Previous Version | Graphics & Text | Print | Product List | Glossary On
Versions: 1 2 3 4 5 6 7 8 9 10 11 12 13 14 15 16 17 18 19 20 21 22 23 24 25 26 27 28 29 30 31 32 33 34 35 36 37 38 39 40 41 42 43 44 45 46 47 48 49 50
000
ASUS45 KCYS 200310
RWRWY

WYOMING REGIONAL WEATHER ROUNDUP
NATIONAL WEATHER SERVICE CHEYENNE WY
900 PM MDT TUE AUG 19 2014

NOTE:  "FAIR" INDICATES FEW OR NO CLOUDS BELOW 12,000 FEET
WITH NO SIGNIFICANT WEATHER AND/OR OBSTRUCTIONS TO VISIBILITY.

WYZ001-200400-
YELLOWSTONE NATIONAL PARK

CITY           SKY/WX    TMP DP  RH WIND       PRES   REMARKS
LK YELLOWSTONE   N/A     53  43  68 CALM      30.09R
W YELLOWSTONE  NOT AVBL

$$
WYZ002>013-054>058-071-098>099-200400-
NORTHERN WYOMING

CITY           SKY/WX    TMP DP  RH WIND       PRES   REMARKS
JACKSON        CLOUDY    54  46  76 CALM      30.04R
CODY           CLOUDY    70  41  35 SE5       29.85S
GREYBULL       CLOUDY    79  42  26 SW7       29.76R
WORLAND        CLOUDY    78  41  26 S12       29.77S
SHERIDAN       CLOUDY    76  43  30 NW10      29.77R
BUFFALO        CLOUDY    76  40  27 NW10      29.83R
GILLETTE       CLOUDY    73  40  30 MISG      29.77R
HULETT         FAIR      73  55  53 MISG      29.78
NEWCASTLE      FAIR      79  41  25 S9        29.79

$$
WYZ014>020-022>026-101>103-200400-
CENTRAL WYOMING

CITY           SKY/WX    TMP DP  RH WIND       PRES   REMARKS
BIG PINEY      CLOUDY    57  43  59 N14       30.05F
PINEDALE       RAIN      54  45  71 W5        30.06S
DUBOIS         CLOUDY    52  45  76 NW14      30.02S
LANDER         CLOUDY    68  42  38 N6        29.87F
RIVERTON       CLOUDY    70  40  33 NW8       29.88F
CASPER         CLOUDY    69  43  38 SW13      29.89R
DOUGLAS        CLOUDY    74  44  34 CALM      29.87R

$$
WYZ021-027>030-104>119-200400-
SOUTHERN WYOMING

CITY           SKY/WX    TMP DP  RH WIND       PRES   REMARKS
EVANSTON       MOCLDY    59  47  64 S3        30.05S
KEMMERER       MOCLDY    59  45  58 CALM      30.06R
FORT BRIDGER   CLOUDY    58  52  81 W6        30.06S
ROCK SPRINGS   CLOUDY    57  51  80 SW8       30.03R
DIXON          FAIR      63  52  67 CALM      30.05S
RAWLINS        CLOUDY    61  46  57 SW5       30.02S
SARATOGA       FAIR      57  48  72 MISG      30.05R
LARAMIE        CLOUDY    63  44  50 SW25G31   30.10R
CHEYENNE       MOCLDY    63  50  62 SW9       29.99R
TORRINGTON     MOCLDY    73  51  46 E8        29.82R
PINE BLUFFS    MOCLDY    68  52  56 SE5       29.93R

$$



USA.gov is the U.S. government's official web portal to all federal, state and local government web resources and services.